This demonstration page uses our WeatherBlox Daily Observations layout. Learn more.

Left ArrowRight Arrow

38.20091, -84.87328

Hourly Observations for October 26, 2021

Temp ( °F °C ) Dew Point ( °F °C ) Humidity (%) Winds ( mph kmh ) Pressure ( in mb ) Visibility ( mi km ) Precip ( " mm )
12:29 am 00:29 Cloudy 51 10.6 48 8.9 89 89 NW 7 11 29.93 1013 10 16 N/A
12:53 am 00:53 Cloudy 50 10 48 8.9 93 93 NNW 7 11 29.91 1013 10 16 N/A
1:26 am 01:26 Cloudy 50 10 48 8.9 93 93 WNW 8 13 29.93 1014 10 16 N/A
1:53 am 01:53 Cloudy 50 10 48 8.9 93 93 VRB 5 7 29.92 1013 10 16 N/A
2:28 am 02:28 Cloudy 50 10 47 8.3 89 89 WNW 7 11 29.95 1014 10 16 N/A
2:37 am 02:37 Cloudy 50 10 47 8.3 89 89 WNW 5 7 29.95 1014 10 16 N/A
2:53 am 02:53 Cloudy 50 10 47 8.3 89 89 VRB 5 7 29.94 1014 10 16 N/A
3:30 am 03:30 Cloudy 50 10 47 8.3 89 89 NW 7 11 29.96 1015 10 16 N/A
3:53 am 03:53 Cloudy 50 10 47 8.3 89 89 NW 8 13 29.96 1014 10 16 N/A
4:41 am 04:41 Cloudy 50 10 46 7.8 86 86 N 7 11 29.98 1015 10 16 N/A
4:53 am 04:53 Cloudy 50 10 46 7.8 86 86 NNW 7 11 29.97 1015 10 16 N/A
5:53 am 05:53 Cloudy 50 10 46 7.8 86 86 NW 3 6 29.99 1016 10 16 N/A
6:53 am 06:53 Cloudy with Light Rain 49 9.4 47 8.3 93 93 NW 9 15 30.00 1016 5 8 0.00 0.00
7:01 am 07:01 Cloudy with Mist and Fog 49 9.4 46 7.8 90 90 NNW 13 20 30.02 1017 6 10 0.00 0.00
7:09 am 07:09 Cloudy 49 9.4 46 7.8 90 90 N 12 19 30.02 1017 10 16 0.00 0.00
7:53 am 07:53 Cloudy 49 9.4 45 7.2 86 86 N 5 7 30.02 1017 10 16 0.00 0.00
8:08 am 08:08 Cloudy 49 9.4 45 7.2 86 86 NNW 6 9 30.02 1017 10 16 N/A
8:53 am 08:53 Cloudy 49 9.4 46 7.8 90 90 NNW 5 7 30.03 1017 10 16 N/A
9:01 am 09:01 Cloudy 49 9.4 45 7.2 86 86 NW 6 9 30.04 1017 10 16 N/A
9:53 am 09:53 Mostly Cloudy 49 9.4 43 6.1 80 80 N 8 13 30.04 1017 10 16 N/A
10:53 am 10:53 Cloudy 51 10.6 40 4.4 66 66 N 7 11 30.04 1017 10 16 N/A
11:30 am 11:30 Partly Cloudy 52 11.1 39 3.9 61 61 N 12 19 30.06 1018 10 16 N/A
11:53 am 11:53 Mostly Cloudy 53 11.7 40 4.4 61 61 NNW 10 17 30.05 1018 10 16 N/A
12:53 pm 12:53 Partly Cloudy 55 12.8 39 3.9 55 55 N 9 15 30.04 1017 10 16 N/A
1:53 pm 13:53 Partly Cloudy 55 12.8 40 4.4 57 57 NNW 8 13 30.02 1017 10 16 N/A
2:53 pm 14:53 Mostly Cloudy 58 14.4 39 3.9 50 50 VRB 5 7 30.00 1016 10 16 N/A
3:53 pm 15:53 Partly Cloudy 59 15 38 3.3 46 46 NNW 9 15 30.00 1016 10 16 N/A
4:53 pm 16:53 Sunny 58 14.4 39 3.9 50 50 NNW 8 13 29.99 1016 10 16 N/A
5:53 pm 17:53 Sunny 56 13.3 38 3.3 51 51 WNW 5 7 30.00 1016 10 16 N/A
6:53 pm 18:53 Clear 51 10.6 41 5 69 69 W 3 6 30.00 1016 10 16 N/A
7:53 pm 19:53 Clear 47 8.3 42 5.6 83 83 N N/A 30.00 1016 10 16 N/A
8:53 pm 20:53 Clear 45 7.2 42 5.6 90 90 N N/A 30.01 1016 10 16 N/A
9:53 pm 21:53 Clear 43 6.1 40 4.4 89 89 N N/A 30.03 1017 10 16 N/A
10:53 pm 22:53 Clear 41 5 39 3.9 93 93 N N/A 30.03 1017 10 16 N/A
11:53 pm 23:53 Clear 40 4.4 38 3.3 93 93 N N/A 30.02 1017 10 16 N/A

Powered by AerisWeather